[[{"header":{"parameterUnit":"m.s-1","parameterCategory":1,"la1":30.2991,"la2":30.254,"lo1":-89.0895,"lo2":-89.0444,"dy":0.0017,"dx":0.0017,"nx":28,"ny":28,"refTime":"2024-08-09T21:00:00:Z","depth":0,"parameterNumber":2,"parameterNumberName":"U-component_of_WINDS"},"data":[0,0,0,0,0,0,0,0,0,0,0,0,0,0,0,0,0,0,0,0,0,0,0,0,0,0,0,0,0,0,0,0,0,0,0,0,0,0,0,0,0,0,0,0,0,0,0,0,0,0,0,0,0,0,0,0,0,0,0.5579,0.5579,0,0.5576,0.5576,0.5576,0.5604,0.5604,0.5605,0.5606,0.5601,0.56,0.5599,0,0,0,0,0,0,0,0,0,0,0,0,0,0.5605,0.5605,0.5579,0.5579,0.5579,0.5576,0.5576,0.5576,0.5603,0.5604,0.5605,0.5606,0.5601,0.56,0.5599,0,0,0,0,0,0,0,0,0,0,0,0,0,0.5597,0.5604,0.5579,0.5592,0.5593,0.5576,0.5576,0.5576,0.5603,0.5604,0.5605,0.5607,0.5601,0.56,0.5599,0.5568,0,0,0.5595,0.5594,0,0,0,0,0,0,0,0,0.5598,0.5596,0.559,0.5591,0.5592,0.5591,0.5584,0.5574,0.5603,0.5599,0.5606,0.5607,0.5597,0.5596,0.5593,0.5568,0.5568,0.5595,0.5594,0.5594,0.5593,0,0,0,0,0,0,0,0.5598,0.5597,0.5578,0.559,0.5591,0.5598,0.5598,0.5582,0.5591,0.56,0.5602,0.5601,0.5597,0.5594,0.5593,0.5568,0.5595,0.5594,0.5593,0.5593,0.5518,0.5517,0,0,0,0,0,0,0.5597,0.5597,0.5578,0.5578,0.5598,0.5596,0.5596,0.5591,0.5592,0.5593,0.56,0.5602,0.5595,0.5594,0.5593,0.5557,0.5594,0.5592,0.5592,0.5519,0.5518,0.5516,0,0,0,0,0,0,0.5598,0.5595,0.5578,0.5588,0.5586,0.5595,0.5588,0.559,0.5586,0.5592,0.5594,0.5595,0.5596,0.5595,0.5574,0.5557,0.5592,0.5591,0.5521,0.5519,0.5517,0.5484,0,0,0,0,0,0,0.5598,0.5595,0.5584,0.5587,0.5585,0.556,0.5587,0.5589,0.5584,0.5587,0.5588,0.5589,0.5597,0.5576,0.5573,0.5556,0.559,0.5522,0.552,0.5518,0.5487,0.5482,0.5477,0,0,0,0,0,0.5599,0.5574,0.5583,0.5581,0.5572,0.5559,0.5558,0.5568,0.5583,0.5571,0.5575,0.5589,0.556,0.5574,0.5571,0.5553,0.5523,0.5521,0.5518,0.5489,0.5483,0.5477,0,0,0,0,0,0,0.5568,0.5575,0.5585,0.5561,0.5559,0.5564,0.5549,0.5561,0.5555,0.5557,0.5571,0.557,0.5548,0.5549,0.5564,0.5523,0.5544,0.554,0.5523,0.5517,0.5512,0.5512,0.5589,0,0,0,0,0,0.5558,0.5548,0.5555,0.5533,0.5531,0.554,0.5535,0.5544,0.5542,0.5541,0.5544,0.5541,0.5531,0.5525,0.5516,0.5488,0.5488,0.5474,0.5469,0.5465,0.5461,0.5446,0.5439,0.5507,0.5507,0.5507,0,0,0.5538,0.5541,0.5533,0.5526,0.5526,0.5514,0.554,0.5526,0.5517,0.5539,0.552,0.5522,0.552,0.5496,0.5485,0.5495,0.5443,0.5461,0.5458,0.5456,0.5442,0.5436,0.543,0.5506,0.5506,0.5506,0,0,0.5494,0.5496,0.5478,0.5477,0.5477,0.5483,0.5479,0.5482,0.5484,0.5466,0.5482,0.5472,0.5455,0.5452,0.5449,0.5406,0.5418,0.5403,0.5376,0.5361,0.5356,0.5351,0.5335,0.5329,0.54,0.54,0.54,0,0.5469,0.5452,0.5466,0.5452,0.5448,0.5469,0.545,0.5449,0.5445,0.5442,0.5454,0.5433,0.5434,0.5409,0.5398,0.5395,0.539,0.5402,0.5356,0.5351,0.5347,0.5331,0.5325,0.5398,0.5398,0.5398,0.5398,0,0.542,0.5409,0.5394,0.5391,0.5386,0.5369,0.538,0.5373,0.5382,0.5387,0.5368,0.537,0.5361,0.5357,0.5365,0.5333,0.5339,0.5354,0.5374,0.5338,0.5324,0.5318,0.5395,0.5396,0.5396,0.5397,0,0,0.5355,0.5361,0.5355,0.5354,0.5356,0.5347,0.5331,0.5324,0.5318,0.5315,0.5302,0.5288,0.5301,0.5297,0.5306,0.5293,0.5258,0.5309,0.5309,0.5298,0.5221,0.5209,0.5202,0.5267,0.5266,0.5265,0.5221,0,0.5312,0.5285,0.5298,0.527,0.5259,0.528,0.5266,0.5265,0.527,0.5261,0.5266,0.5256,0.5275,0.5272,0.5261,0.5265,0.5242,0.5268,0.5253,0.5252,0.5251,0.5195,0.5182,0.5141,0.5216,0.5215,0.5214,0,0.5257,0.5253,0.5224,0.5228,0.5224,0.5212,0.5206,0.5198,0.5198,0.5202,0.5199,0.5211,0.5195,0.5218,0.5196,0.5213,0.5208,0.5209,0.5208,0.5205,0.523,0.5189,0.5128,0.5121,0.5206,0.5206,0.5207,0,0.5211,0.5198,0.5179,0.5178,0.5183,0.5173,0.5175,0.5176,0.5171,0.5166,0.5163,0.5157,0.5153,0.5147,0.5157,0.5173,0.5134,0.5157,0.5136,0.5135,0.5125,0.5125,0.506,0.5124,0.5124,0.5125,0.5125,0,0.516,0.5141,0.5158,0.5146,0.5126,0.5141,0.512,0.5124,0.5125,0.5114,0.5131,0.512,0.5135,0.5125,0.5133,0.5113,0.5112,0.5114,0.5116,0.5112,0.5111,0.5107,0.5109,0.5123,0.5123,0.5124,0.5124,0,0.5103,0.5114,0.5095,0.5102,0.5103,0.5087,0.5093,0.5082,0.5089,0.5074,0.5072,0.5082,0.5071,0.5082,0.5072,0.5077,0.505,0.5057,0.505,0.5051,0.5029,0.5031,0.4958,0.4949,0.502,0.502,0.5019,0,0.5069,0.5055,0.5061,0.5055,0.5056,0.5046,0.5042,0.5057,0.5051,0.505,0.5039,0.5031,0.5024,0.5007,0.5012,0.5005,0.5011,0.4986,0.501,0.5006,0.5009,0.5009,0.5007,0.498,0.498,0.4979,0.4978,0,0.5007,0.5014,0.5007,0.5002,0.4996,0.4993,0.4991,0.4985,0.5001,0.4993,0.4984,0.4979,0.4969,0.496,0.4955,0.4956,0.4969,0.4971,0.4966,0.496,0.4956,0.4957,0.5035,0.4972,0.4973,0.4973,0.4974,0.4974,0.496,0.4948,0.4951,0.4942,0.4943,0.4941,0.4931,0.4937,0.4929,0.4923,0.4933,0.492,0.4921,0.4915,0.4915,0.4905,0.4915,0.4907,0.4905,0.4902,0.4898,0.4959,0.4904,0.4904,0.4904,0.4904,0.4904,0,0.4897,0.49,0.4893,0.489,0.4883,0.4899,0.4898,0.4891,0.488,0.488,0.4874,0.4863,0.4854,0.486,0.4853,0.4844,0.485,0.4841,0.4841,0.4841,0.489,0.4895,0.4836,0.4836,0.4836,0.4837,0.4837,0.4837,0.4864,0.4845,0.4852,0.4834,0.4837,0.4825,0.4823,0.4821,0.4822,0.4808,0.4802,0.4806,0.4809,0.4802,0.4795,0.4797,0.4793,0.4782,0.4785,0.4831,0.4837,0.4844,0.4848,0.4781,0.4781,0.4737,0.4737,0.4736]},{"header":{"parameterUnit":"m.s-1","parameterCategory":1,"la1":30.2991,"la2":30.254,"lo1":-89.0895,"lo2":-89.0444,"dy":0.0017,"dx":0.0017,"nx":28,"ny":28,"refTime":"2024-08-09T21:00:00:Z","depth":0,"parameterNumber":3,"parameterNumberName":"V-component_of_WINDS"},"data":[0,0,0,0,0,0,0,0,0,0,0,0,0,0,0,0,0,0,0,0,0,0,0,0,0,0,0,0,0,0,0,0,0,0,0,0,0,0,0,0,0,0,0,0,0,0,0,0,0,0,0,0,0,0,0,0,0,0,-3.2231,-3.2231,0,-3.2233,-3.2233,-3.2233,-3.2166,-3.2164,-3.2163,-3.2161,-3.2164,-3.2166,-3.2168,0,0,0,0,0,0,0,0,0,0,0,0,0,-3.2168,-3.217,-3.2231,-3.2231,-3.2231,-3.2233,-3.2233,-3.2233,-3.2167,-3.2164,-3.2162,-3.216,-3.2164,-3.2166,-3.2168,0,0,0,0,0,0,0,0,0,0,0,0,0,-3.2186,-3.217,-3.2231,-3.2198,-3.2195,-3.2233,-3.2233,-3.2233,-3.2167,-3.2164,-3.2162,-3.2159,-3.2163,-3.2166,-3.2168,-3.2239,0,0,-3.2176,-3.2178,0,0,0,0,0,0,0,0,-3.2185,-3.2188,-3.2203,-3.22,-3.2197,-3.2197,-3.2212,-3.2235,-3.2168,-3.2178,-3.2161,-3.2158,-3.2177,-3.2179,-3.2185,-3.2239,-3.2239,-3.2177,-3.2178,-3.2179,-3.218,0,0,0,0,0,0,0,-3.2184,-3.2187,-3.2232,-3.2203,-3.2199,-3.2183,-3.2182,-3.2216,-3.2193,-3.2177,-3.2172,-3.2173,-3.2175,-3.2183,-3.2185,-3.2239,-3.2177,-3.2179,-3.2181,-3.2182,-3.2349,-3.2352,0,0,0,0,0,0,-3.2187,-3.2187,-3.2232,-3.2232,-3.2184,-3.2186,-3.2186,-3.2199,-3.2192,-3.2188,-3.2175,-3.217,-3.218,-3.2182,-3.2185,-3.2265,-3.2179,-3.2182,-3.2183,-3.2346,-3.235,-3.2353,0,0,0,0,0,0,-3.2186,-3.2191,-3.2231,-3.2208,-3.2212,-3.219,-3.2206,-3.2201,-3.2208,-3.2191,-3.2186,-3.2187,-3.2177,-3.2181,-3.2225,-3.2264,-3.2183,-3.2186,-3.2343,-3.2347,-3.2351,-3.2428,0,0,0,0,0,0,-3.2184,-3.2191,-3.2218,-3.2209,-3.2213,-3.2272,-3.2209,-3.2203,-3.2213,-3.2206,-3.2201,-3.2198,-3.2176,-3.2222,-3.2228,-3.2267,-3.2188,-3.2339,-3.2345,-3.235,-3.2422,-3.2434,-3.2445,0,0,0,0,0,-3.2182,-3.224,-3.222,-3.2225,-3.2246,-3.2275,-3.2277,-3.225,-3.2216,-3.2243,-3.2231,-3.2198,-3.2259,-3.2227,-3.2233,-3.2273,-3.2337,-3.2343,-3.2349,-3.2416,-3.2432,-3.2445,0,0,0,0,0,0,-3.2255,-3.2238,-3.2216,-3.2272,-3.2275,-3.2263,-3.2296,-3.2268,-3.2281,-3.2274,-3.224,-3.224,-3.229,-3.2286,-3.225,-3.234,-3.2292,-3.23,-3.2341,-3.2355,-3.2366,-3.2366,-3.219,0,0,0,0,0,-3.2277,-3.2302,-3.2286,-3.2338,-3.234,-3.2318,-3.233,-3.2309,-3.2311,-3.2312,-3.2304,-3.2307,-3.2327,-3.2341,-3.2358,-3.2421,-3.2418,-3.2452,-3.2463,-3.2473,-3.248,-3.2511,-3.2526,-3.2374,-3.2374,-3.2374,0,0,-3.2324,-3.2318,-3.2336,-3.2352,-3.2352,-3.2378,-3.232,-3.235,-3.2369,-3.2316,-3.2357,-3.2352,-3.2353,-3.2407,-3.243,-3.2405,-3.2521,-3.2481,-3.2489,-3.2491,-3.252,-3.2534,-3.2547,-3.2378,-3.2377,-3.2377,0,0,-3.2423,-3.2421,-3.2463,-3.2464,-3.2464,-3.2449,-3.2459,-3.2451,-3.2445,-3.2486,-3.2447,-3.2469,-3.2504,-3.2506,-3.2512,-3.2611,-3.258,-3.2617,-3.2678,-3.2709,-3.2721,-3.2731,-3.2765,-3.2777,-3.2625,-3.2625,-3.2625,0,-3.2481,-3.2519,-3.2489,-3.2521,-3.2529,-3.2482,-3.2524,-3.2526,-3.2533,-3.2539,-3.2511,-3.2554,-3.2552,-3.2604,-3.2628,-3.2635,-3.2645,-3.2617,-3.2721,-3.2731,-3.2741,-3.2772,-3.2785,-3.2629,-3.2629,-3.2628,-3.2628,0,-3.259,-3.2616,-3.265,-3.2656,-3.2668,-3.2705,-3.268,-3.2696,-3.2674,-3.2661,-3.2703,-3.2699,-3.2714,-3.2725,-3.2704,-3.2774,-3.2759,-3.2727,-3.2677,-3.276,-3.2789,-3.2801,-3.2636,-3.2634,-3.2633,-3.2632,0,0,-3.2735,-3.2723,-3.2735,-3.2737,-3.2733,-3.2753,-3.2788,-3.2802,-3.2815,-3.2821,-3.2849,-3.288,-3.2849,-3.2856,-3.2835,-3.2863,-3.2939,-3.2827,-3.2826,-3.2847,-3.3015,-3.3038,-3.3053,-3.2919,-3.2921,-3.2923,-3.3014,0,-3.2829,-3.2887,-3.286,-3.2921,-3.2944,-3.29,-3.293,-3.2931,-3.292,-3.2938,-3.2926,-3.2948,-3.2907,-3.2911,-3.2936,-3.2925,-3.2972,-3.2918,-3.2944,-3.2945,-3.2944,-3.3068,-3.3093,-3.318,-3.3026,-3.3028,-3.3029,0,-3.2947,-3.2957,-3.302,-3.301,-3.3019,-3.3046,-3.3056,-3.3075,-3.3075,-3.3065,-3.3072,-3.3044,-3.3077,-3.3029,-3.3073,-3.3037,-3.3046,-3.3042,-3.3045,-3.3045,-3.2991,-3.3071,-3.3207,-3.3219,-3.3047,-3.3046,-3.3044,0,-3.3045,-3.3073,-3.3114,-3.3117,-3.3108,-3.3128,-3.3125,-3.3122,-3.3132,-3.3141,-3.3147,-3.316,-3.3167,-3.3178,-3.3155,-3.3122,-3.3202,-3.3152,-3.3194,-3.3195,-3.3212,-3.3211,-3.335,-3.3221,-3.3221,-3.322,-3.322,0,-3.3152,-3.3192,-3.3157,-3.3183,-3.3226,-3.3195,-3.3238,-3.3231,-3.3228,-3.3251,-3.3214,-3.3236,-3.3204,-3.3223,-3.3206,-3.3244,-3.3248,-3.3241,-3.3235,-3.3243,-3.3244,-3.3248,-3.3241,-3.3224,-3.3223,-3.3222,-3.3222,0,-3.3268,-3.3247,-3.3288,-3.3275,-3.3273,-3.3305,-3.3294,-3.3317,-3.3303,-3.3332,-3.3337,-3.3316,-3.3336,-3.3314,-3.3333,-3.3321,-3.3373,-3.3359,-3.3373,-3.3368,-3.3411,-3.3407,-3.3556,-3.3573,-3.3435,-3.3436,-3.3437,0,-3.3338,-3.3367,-3.3357,-3.3369,-3.3368,-3.3388,-3.3398,-3.3368,-3.338,-3.3381,-3.3403,-3.342,-3.3432,-3.3467,-3.3453,-3.3467,-3.3453,-3.3504,-3.3455,-3.3461,-3.3452,-3.345,-3.3452,-3.3514,-3.3515,-3.3517,-3.3518,0,-3.3464,-3.3451,-3.3465,-3.3476,-3.3488,-3.3495,-3.3499,-3.3511,-3.3481,-3.3495,-3.3515,-3.3524,-3.3543,-3.356,-3.357,-3.3567,-3.3537,-3.3534,-3.3544,-3.3552,-3.3558,-3.3553,-3.3399,-3.353,-3.3529,-3.3528,-3.3527,-3.3527,-3.3557,-3.3581,-3.3577,-3.3594,-3.3593,-3.3598,-3.3618,-3.3606,-3.3622,-3.3634,-3.3616,-3.364,-3.3639,-3.3649,-3.3649,-3.3668,-3.3646,-3.3661,-3.3665,-3.3668,-3.3674,-3.3556,-3.367,-3.3669,-3.3669,-3.3669,-3.3668,0,-3.368,-3.3674,-3.369,-3.3697,-3.371,-3.368,-3.3683,-3.3696,-3.3718,-3.3718,-3.373,-3.3753,-3.3769,-3.3756,-3.3769,-3.3787,-3.3773,-3.3791,-3.3789,-3.3788,-3.3694,-3.3683,-3.3801,-3.3801,-3.3801,-3.3801,-3.3801,-3.3801,-3.3745,-3.3782,-3.3769,-3.3805,-3.38,-3.3822,-3.3827,-3.383,-3.383,-3.3856,-3.3869,-3.386,-3.3856,-3.3868,-3.3881,-3.3877,-3.3883,-3.3905,-3.3897,-3.3808,-3.3795,-3.3783,-3.3772,-3.3907,-3.3908,-3.3989,-3.399,-3.399]}]]